When you browse on this site, cookies collect data to enhance your experience and personalize the content and advertising you see.
Visit our Privacy Policy to learn more. By continuing to use the site, you agree to this use of cookies and data.
  • In France
  • List of Countries
  • For 7 days
  • Water Temperature
  • Satellite Maps
  • Weather Map
  • Weather Widgets
  • user-avatar
    Login

    Hourly Weather Pazardzhik

    Today, 25 May, Saturday

    Time Temperature Precipitation Wind Pressure Humidity
    00:00 +14°C° 0 mm 2 mps 739 mmHg 79%
    01:00 +13°C° 0 mm 2 mps 740 mmHg 79%
    02:00 +13°C° 0 mm 2 mps 740 mmHg 79%
    03:00 +13°C° 0 mm 2 mps 740 mmHg 78%
    04:00 +13°C° 0 mm 2 mps 740 mmHg 78%
    05:00 +13°C° 0 mm 2 mps 740 mmHg 77%
    06:00 +15°C° 0 mm 2 mps 740 mmHg 71%
    07:00 +17°C° 0 mm 2 mps 741 mmHg 64%
    08:00 +19°C° 0 mm 2 mps 741 mmHg 58%
    09:00 +21°C° 0 mm 3 mps 741 mmHg 53%
    10:00 +22°C° 0 mm 3 mps 741 mmHg 49%
    11:00 +25°C° 0 mm 3 mps 741 mmHg 44%
    12:00 +25°C° 0.1 mm 3 mps 741 mmHg 44%
    13:00 +26°C° 0.1 mm 3 mps 741 mmHg 43%
    14:00 +27°C° 0.1 mm 3 mps 741 mmHg 42%
    15:00 +26°C° 0.2 mm 3 mps 741 mmHg 44%
    16:00 +26°C° 0.2 mm 3 mps 741 mmHg 46%
    17:00 +26°C° 0.2 mm 3 mps 740 mmHg 49%
    18:00 +23°C° 0 mm 2 mps 741 mmHg 56%
    19:00 +20°C° 0 mm 2 mps 741 mmHg 63%
    20:00 +18°C° 0 mm 2 mps 741 mmHg 69%
    21:00 +17°C° 0 mm 2 mps 741 mmHg 72%
    22:00 +17°C° 0 mm 2 mps 742 mmHg 74%
    23:00 +16°C° 0 mm 2 mps 742 mmHg 76%

    Tomorrow, 26 May, Sunday

    Time Temperature Precipitation Wind Pressure Humidity
    00:00 +16°C° 0 mm 2 mps 742 mmHg 77%
    01:00 +15°C° 0 mm 2 mps 742 mmHg 77%
    02:00 +15°C° 0 mm 2 mps 742 mmHg 78%
    03:00 +15°C° 0 mm 2 mps 742 mmHg 78%
    04:00 +15°C° 0 mm 2 mps 742 mmHg 78%
    05:00 +14°C° 0 mm 1 mps 742 mmHg 77%
    06:00 +18°C° 0 mm 1 mps 743 mmHg 70%
    07:00 +20°C° 0 mm 1 mps 743 mmHg 63%
    08:00 +21°C° 0 mm 0 mps 743 mmHg 56%
    09:00 +24°C° 0 mm 1 mps 743 mmHg 51%
    10:00 +26°C° 0 mm 1 mps 743 mmHg 45%
    11:00 +27°C° 0 mm 2 mps 743 mmHg 40%
    12:00 +28°C° 0 mm 2 mps 743 mmHg 40%
    13:00 +28°C° 0 mm 2 mps 743 mmHg 39%
    14:00 +29°C° 0 mm 2 mps 743 mmHg 38%
    15:00 +28°C° 0 mm 2 mps 743 mmHg 41%
    16:00 +28°C° 0 mm 2 mps 742 mmHg 44%
    17:00 +28°C° 0 mm 2 mps 742 mmHg 46%
    18:00 +26°C° 0 mm 2 mps 742 mmHg 54%
    19:00 +24°C° 0 mm 1 mps 742 mmHg 61%
    20:00 +22°C° 0 mm 1 mps 743 mmHg 68%
    21:00 +21°C° 0 mm 1 mps 743 mmHg 72%
    22:00 +20°C° 0 mm 1 mps 743 mmHg 75%
    23:00 +19°C° 0 mm 1 mps 743 mmHg 78%

    Day after tomorrow, 27 May, Monday

    Time Temperature Precipitation Wind Pressure Humidity
    00:00 +19°C° 0 mm 1 mps 743 mmHg 79%
    01:00 +19°C° 0 mm 1 mps 743 mmHg 81%
    02:00 +18°C° 0 mm 1 mps 743 mmHg 82%
    03:00 +18°C° 0 mm 1 mps 743 mmHg 84%
    04:00 +18°C° 0 mm 1 mps 743 mmHg 85%
    05:00 +16°C° 0 mm 1 mps 743 mmHg 87%
    06:00 +19°C° 0 mm 1 mps 743 mmHg 80%
    07:00 +21°C° 0 mm 1 mps 743 mmHg 73%
    08:00 +23°C° 0 mm 2 mps 743 mmHg 67%
    09:00 +25°C° 0 mm 2 mps 743 mmHg 60%
    10:00 +26°C° 0 mm 3 mps 743 mmHg 54%
    11:00 +28°C° 0 mm 3 mps 743 mmHg 48%
    12:00 +28°C° 0 mm 3 mps 743 mmHg 45%
    13:00 +29°C° 0 mm 4 mps 743 mmHg 43%
    14:00 +30°C° 0 mm 4 mps 742 mmHg 40%
    15:00 +29°C° 0 mm 4 mps 742 mmHg 44%
    16:00 +29°C° 0 mm 4 mps 742 mmHg 48%
    17:00 +28°C° 0 mm 3 mps 741 mmHg 51%
    18:00 +27°C° 0 mm 3 mps 741 mmHg 56%
    19:00 +25°C° 0 mm 2 mps 741 mmHg 61%
    20:00 +23°C° 0 mm 2 mps 741 mmHg 66%
    21:00 +21°C° 0 mm 2 mps 741 mmHg 67%
    22:00 +20°C° 0 mm 2 mps 741 mmHg 68%
    23:00 +20°C° 0 mm 1 mps 741 mmHg 69%

    28 May, Tuesday

    Time Temperature Precipitation Wind Pressure Humidity
    00:00 +19°C° 0 mm 1 mps 741 mmHg 69%
    01:00 +19°C° 0 mm 1 mps 741 mmHg 69%
    02:00 +18°C° 0 mm 1 mps 741 mmHg 69%
    03:00 +16°C° 0 mm 1 mps 741 mmHg 69%
    04:00 +16°C° 0 mm 1 mps 740 mmHg 69%
    05:00 +16°C° 0 mm 1 mps 740 mmHg 69%
    06:00 +18°C° 0 mm 2 mps 740 mmHg 63%
    07:00 +20°C° 0 mm 2 mps 740 mmHg 57%
    08:00 +24°C° 0 mm 2 mps 740 mmHg 51%
    09:00 +26°C° 0 mm 3 mps 740 mmHg 47%
    10:00 +27°C° 0 mm 3 mps 740 mmHg 42%
    11:00 +29°C° 0 mm 4 mps 740 mmHg 38%
    12:00 +32°C° 0 mm 4 mps 739 mmHg 34%
    13:00 +33°C° 0 mm 4 mps 739 mmHg 30%
    14:00 +34°C° 0 mm 3 mps 739 mmHg 26%
    15:00 +34°C° 0 mm 4 mps 738 mmHg 27%
    16:00 +33°C° 0 mm 4 mps 738 mmHg 28%
    17:00 +33°C° 0 mm 4 mps 738 mmHg 29%
    18:00 +29°C° 0 mm 4 mps 738 mmHg 37%
    19:00 +26°C° 0 mm 3 mps 738 mmHg 45%
    20:00 +22°C° 0 mm 3 mps 738 mmHg 53%
    21:00 +21°C° 0 mm 2 mps 738 mmHg 57%
    22:00 +20°C° 0 mm 2 mps 738 mmHg 62%
    23:00 +19°C° 0 mm 2 mps 739 mmHg 67%

    29 May, Wednesday

    Time Temperature Precipitation Wind Pressure Humidity
    00:00 +19°C° 0 mm 2 mps 739 mmHg 68%
    01:00 +18°C° 0 mm 2 mps 739 mmHg 70%
    02:00 +19°C° 0 mm 1 mps 739 mmHg 72%
    03:00 +18°C° 0 mm 1 mps 739 mmHg 73%
    04:00 +18°C° 0 mm 1 mps 739 mmHg 74%
    05:00 +18°C° 0 mm 1 mps 740 mmHg 75%
    06:00 +20°C° 0 mm 1 mps 740 mmHg 68%
    07:00 +22°C° 0 mm 1 mps 740 mmHg 61%
    08:00 +25°C° 0 mm 1 mps 741 mmHg 54%
    09:00 +26°C° 0 mm 1 mps 741 mmHg 49%
    10:00 +28°C° 0 mm 1 mps 741 mmHg 45%
    11:00 +29°C° 0 mm 2 mps 741 mmHg 40%
    12:00 +29°C° 0 mm 2 mps 741 mmHg 40%
    13:00 +30°C° 0 mm 2 mps 741 mmHg 40%
    14:00 +30°C° 0 mm 2 mps 740 mmHg 39%
    15:00 +30°C° 0 mm 1 mps 740 mmHg 40%
    16:00 +30°C° 0 mm 1 mps 740 mmHg 41%
    17:00 +30°C° 0 mm 1 mps 740 mmHg 42%
    18:00 +28°C° 0 mm 1 mps 741 mmHg 47%
    19:00 +23°C° 0 mm 0 mps 741 mmHg 53%
    20:00 +21°C° 0 mm 0 mps 741 mmHg 58%
    21:00 +23°C° 0 mm 1 mps 741 mmHg 61%
    22:00 +22°C° 0 mm 1 mps 742 mmHg 63%
    23:00 +20°C° 0 mm 2 mps 742 mmHg 65%

    30 May, Thursday

    Time Temperature Precipitation Wind Pressure Humidity
    00:00 +20°C° 0 mm 2 mps 742 mmHg 67%
    01:00 +20°C° 0 mm 2 mps 742 mmHg 68%
    02:00 +19°C° 0 mm 2 mps 742 mmHg 70%
    03:00 +19°C° 0 mm 2 mps 743 mmHg 70%
    04:00 +19°C° 0 mm 2 mps 743 mmHg 71%
    05:00 +18°C° 0 mm 2 mps 743 mmHg 72%
    06:00 +20°C° 0 mm 2 mps 743 mmHg 67%
    07:00 +23°C° 0 mm 2 mps 743 mmHg 62%
    08:00 +26°C° 0 mm 1 mps 743 mmHg 57%
    09:00 +27°C° 0.1 mm 1 mps 743 mmHg 54%
    10:00 +28°C° 0.1 mm 1 mps 743 mmHg 52%
    11:00 +29°C° 0.1 mm 1 mps 743 mmHg 49%
    12:00 +30°C° 1 mm 1 mps 743 mmHg 50%
    13:00 +30°C° 1 mm 1 mps 743 mmHg 50%
    14:00 +30°C° 1 mm 1 mps 742 mmHg 50%
    15:00 +30°C° 1.2 mm 2 mps 742 mmHg 50%
    16:00 +30°C° 1.2 mm 2 mps 742 mmHg 51%
    17:00 +29°C° 1.2 mm 2 mps 742 mmHg 52%
    18:00 +27°C° 0.5 mm 1 mps 742 mmHg 58%
    19:00 +25°C° 0.5 mm 1 mps 741 mmHg 64%
    20:00 +23°C° 0.5 mm 1 mps 741 mmHg 71%
    21:00 +22°C° 0.2 mm 1 mps 741 mmHg 75%
    22:00 +21°C° 0.2 mm 1 mps 741 mmHg 78%
    23:00 +20°C° 0.2 mm 1 mps 742 mmHg 82%
    Show more